{"data":{"norad_id":37256,"epoch":"2026-05-21T17:26:36.818592Z","epoch_age_seconds":353798,"freshness":"STALE","line1":"1 37256U 10068A   26141.72681503 -.00000225  00000+0  00000+0 0  9992","line2":"2 37256  47.5987 272.1591 0054473 211.8397 123.6506  1.00291558 56528","mean_motion":1.00291558,"eccentricity":0.0054473,"inclination_deg":47.5987,"raan_deg":272.1591,"arg_perigee_deg":211.8397,"mean_anomaly_deg":123.6506,"bstar":0,"rev_number":5652,"period_min":1435.8137700882,"perigee_km":35551.399027736,"apogee_km":36010.706536738,"semimajor_km":42159.189782237,"source":"CELESTRAK","updated_at":"2026-05-25T13:38:24.208672Z"}}